GW5240 Weather Reports


time (UTC)temp
C
wind
direction
speed
KPH
gust
KPH
rain 1hr
cm
rain 24hr
cm
rain mn
cm
humidity
%
barometer
mb
20260906030049 23 163 0.0 0.0 0.00 0.00 0.00 83 1018.2
20260906025549 23 163 0.0 0.0 0.00 0.00 0.00 83 1018.4
20260906025048 23 163 0.0 0.0 0.00 0.00 0.00 83 1018.4
20260906024543 23 163 0.0 0.0 0.00 0.00 0.00 83 1018.4
20260906024043 23 165 0.0 0.0 0.00 0.00 0.00 83 1018.4
20260906023539 23 174 0.0 0.0 0.00 0.00 0.00 82 1018.2
20260906023034 23 172 0.0 0.0 0.00 0.00 0.00 83 1018.1
20260906022529 23 170 0.0 0.0 0.00 0.00 0.00 82 1018.1
20260906022024 23 169 0.0 0.0 0.00 0.00 0.00 82 1018.0
20260906021520 23 169 0.0 0.0 0.00 0.00 0.00 81 1017.7
20260906021014 23 169 0.0 0.0 0.00 0.00 0.00 82 1017.8
20260906020513 23 162 0.0 0.0 0.00 0.00 0.00 81 1017.7
20260906020013 24 171 0.0 0.0 0.00 0.00 0.00 81 1017.5
20260906015512 24 161 0.0 0.0 0.00 0.00 0.00 80 1017.3
20260906015012 24 171 0.0 0.0 0.00 0.00 0.00 80 1017.1
20260906014512 25 199 3.2 4.8 0.00 0.00 0.00 79 1017.2
20260906014009 25 167 0.0 0.0 0.00 0.00 0.00 79 1016.9
20260906013504 25 159 0.0 3.2 0.00 0.00 0.00 79 1016.7
20260906012959 25 170 0.0 3.2 0.00 0.00 0.00 78 1016.6
20260906012454 25 157 0.0 0.0 0.00 0.00 0.00 78 1016.3
20260906011953 25 124 0.0 3.2 0.00 0.00 0.00 77 1016.3
20260906011449 25 159 0.0 0.0 0.00 0.00 0.00 76 1016.2
20260906010944 25 143 3.2 3.2 0.00 0.00 0.00 76 1016.1
20260906010439 25 159 0.0 0.0 0.00 0.00 0.00 75 1016.1
20260906005936 26 174 1.6 4.8 0.00 0.00 0.00 75 1016.0
20260906005435 26 190 3.2 3.2 0.00 0.00 0.00 75 1016.0
20260906004934 26 174 3.2 3.2 0.00 0.00 0.00 74 1016.0
20260906004428 26 161 3.2 8.0 0.00 0.00 0.00 73 1016.0
20260906003924 26 164 0.0 3.2 0.00 0.00 0.00 72 1015.7
20260906003419 27 154 3.2 4.8 0.00 0.00 0.00 71 1015.8
20260906002914 27 189 3.2 4.8 0.00 0.00 0.00 69 1015.5
20260906002408 27 185 0.0 0.0 0.00 0.00 0.00 67 1015.5
20260906001903 27 167 0.0 0.0 0.00 0.00 0.00 66 1015.6
20260906001359 27 147 0.0 0.0 0.00 0.00 0.00 65 1015.4
20260906000859 27 165 0.0 0.0 0.00 0.00 0.00 65 1015.5
20260906000356 27 141 0.0 3.2 0.00 0.00 0.00 64 1015.6
20260905235849 28 173 3.2 4.8 0.00 0.00 0.00 64 1015.7
20260905235348 28 175 0.0 3.2 0.00 0.00 0.00 64 1015.6
20260905234844 28 181 0.0 0.0 0.00 0.00 0.00 64 1015.6
20260905234339 28 169 0.0 3.2 0.00 0.00 0.00 63 1015.5
20260905233834 28 157 3.2 3.2 0.00 0.00 0.00 63 1015.4
20260905233329 28 151 3.2 3.2 0.00 0.00 0.00 62 1015.2
20260905232828 28 39 4.8 4.8 0.00 0.00 0.00 61 1015.1
20260905232325 28 164 0.0 0.0 0.00 0.00 0.00 61 1015.2
20260905231820 29 140 3.2 4.8 0.00 0.00 0.00 60 1015.1
20260905231315 29 123 1.6 3.2 0.00 0.00 0.00 60 1015.2
20260905230811 29 173 0.0 0.0 0.00 0.00 0.00 61 1015.0
20260905230309 29 152 1.6 3.2 0.00 0.00 0.00 60 1014.9
20260905225809 29 175 1.6 3.2 0.00 0.00 0.00 61 1015.1
20260905225306 29 149 3.2 4.8 0.00 0.00 0.00 61 1014.9
20260905224804 30 170 0.0 3.2 0.00 0.00 0.00 60 1014.7
20260905224300 30 101 6.4 8.0 0.00 0.00 0.00 59 1014.7
20260905223755 30 209 3.2 3.2 0.00 0.00 0.00 58 1014.9
20260905223252 30 51 6.4 8.0 0.00 0.00 0.00 58 1014.9
20260905222747 30 248 0.0 3.2 0.00 0.00 0.00 57 1014.8
20260905222246 30 189 3.2 4.8 0.00 0.00 0.00 57 1015.0
20260905221742 30 171 1.6 3.2 0.00 0.00 0.00 57 1015.0
20260905221239 31 108 3.2 3.2 0.00 0.00 0.00 55 1015.1
20260905220734 31 119 3.2 3.2 0.00 0.00 0.00 55 1015.2
20260905220231 31 176 1.6 3.2 0.00 0.00 0.00 56 1015.1
20260905215729 31 187 4.8 4.8 0.00 0.00 0.00 56 1015.2
20260905215225 31 106 3.2 4.8 0.00 0.00 0.00 56 1015.2
20260905214721 31 182 3.2 4.8 0.00 0.00 0.00 56 1015.4
20260905214216 30 186 1.6 3.2 0.00 0.00 0.00 57 1015.2
20260905213711 30 278 1.6 3.2 0.00 0.00 0.00 57 1015.3
20260905213207 31 87 3.2 11.3 0.00 0.00 0.00 56 1015.3
20260905212702 31 194 3.2 4.8 0.00 0.00 0.00 57 1015.2
20260905212201 31 177 1.6 3.2 0.00 0.00 0.00 57 1015.2
20260905211656 31 168 4.8 11.3 0.00 0.00 0.00 57 1015.3
20260905211151 30 134 3.2 3.2 0.00 0.00 0.00 58 1015.2
20260905210649 31 113 1.6 3.2 0.00 0.00 0.00 58 1015.1
20260905210148 31 106 4.8 8.0 0.00 0.00 0.00 58 1015.3
20260905205647 30 166 3.2 3.2 0.00 0.00 0.00 58 1015.3
20260905205142 31 20 6.4 8.0 0.00 0.00 0.00 57 1015.3
20260905204641 31 85 3.2 4.8 0.00 0.00 0.00 59 1015.9
20260905204136 31 2 3.2 4.8 0.00 0.00 0.00 60 1015.7
20260905203631 30 124 1.6 3.2 0.00 0.00 0.00 61 1016.2
20260905203126 30 113 3.2 4.8 0.00 0.00 0.00 63 1016.1
20260905202622 29 66 4.8 4.8 0.00 0.00 0.00 63 1016.3
20260905202117 29 133 3.2 4.8 0.00 0.00 0.00 63 1016.3
20260905201613 29 169 3.2 8.0 0.00 0.00 0.00 64 1016.5
20260905201112 29 192 1.6 3.2 0.00 0.00 0.00 64 1016.7
20260905200608 28 168 0.0 0.0 0.00 0.00 0.00 65 1016.6
20260905195555 28 183 6.4 8.0 0.00 0.00 0.00 64 1016.9
20260905195052 28 211 0.0 0.0 0.00 0.00 0.00 65 1016.9
20260905194551 28 138 1.6 4.8 0.00 0.00 0.00 66 1017.1
20260905194050 28 170 1.6 3.2 0.00 0.00 0.00 66 1017.3
20260905193546 28 130 1.6 3.2 0.00 0.00 0.00 66 1017.2
20260905193041 28 91 3.2 4.8 0.00 0.00 0.00 66 1017.2
20260905192536 28 161 1.6 3.2 0.00 0.00 0.00 65 1017.4
20260905192033 28 125 0.0 3.2 0.00 0.00 0.00 66 1017.5
20260905191530 28 85 4.8 4.8 0.00 0.00 0.00 65 1017.3
20260905191029 28 171 3.2 4.8 0.00 0.00 0.00 67 1017.2
20260905190527 28 153 3.2 4.8 0.00 0.00 0.00 67 1017.3
20260905190022 28 118 3.2 3.2 0.00 0.00 0.00 67 1017.2
20260905185521 27 192 1.6 3.2 0.00 0.00 0.00 70 1017.2
20260905185020 28 103 3.2 4.8 0.00 0.00 0.00 68 1017.3
20260905184515 28 175 0.0 0.0 0.00 0.00 0.00 69 1017.4
20260905184014 27 96 3.2 4.8 0.00 0.00 0.00 69 1017.4
20260905183514 28 162 1.6 3.2 0.00 0.00 0.00 68 1017.4
20260905183009 28 183 1.6 3.2 0.00 0.00 0.00 68 1017.5
20260905182508 28 172 1.6 3.2 0.00 0.00 0.00 68 1017.5
20260905182003 27 94 4.8 8.0 0.00 0.00 0.00 69 1017.5
20260905181458 27 72 1.6 3.2 0.00 0.00 0.00 71 1017.4
20260905180957 27 117 3.2 4.8 0.00 0.00 0.00 71 1017.7
20260905180452 27 198 3.2 4.8 0.00 0.00 0.00 71 1017.6
20260905175947 26 143 0.0 0.0 0.00 0.00 0.00 73 1017.7
20260905175446 26 164 1.6 3.2 0.00 0.00 0.00 73 1017.8
20260905174942 26 130 3.2 4.8 0.00 0.00 0.00 74 1017.8
20260905174437 26 160 0.0 3.2 0.00 0.00 0.00 74 1018.0
20260905173933 26 170 0.0 0.0 0.00 0.00 0.00 74 1018.1
20260905173429 26 159 1.6 3.2 0.00 0.00 0.00 75 1018.2
20260905172925 26 177 1.6 3.2 0.00 0.00 0.00 77 1018.3
20260905172422 25 231 0.0 0.0 0.00 0.00 0.00 77 1018.2
20260905171918 25 140 1.6 3.2 0.00 0.00 0.00 78 1018.5
20260905171415 25 2 3.2 4.8 0.00 0.00 0.00 78 1018.3
20260905170911 25 194 1.6 3.2 0.00 0.00 0.00 79 1018.4
20260905170407 25 152 6.4 11.3 0.00 0.00 0.00 79 1018.4
20260905165901 24 171 1.6 3.2 0.00 0.00 0.00 81 1018.2
20260905165356 25 177 0.0 0.0 0.00 0.00 0.00 80 1018.4
20260905164856 25 152 0.0 0.0 0.00 0.00 0.00 80 1018.4
20260905164351 24 176 0.0 3.2 0.00 0.00 0.00 81 1018.4
20260905163846 24 72 3.2 3.2 0.00 0.00 0.00 82 1018.4
20260905163342 23 149 0.0 0.0 0.00 0.00 0.00 82 1018.6
20260905162838 23 154 3.2 4.8 0.00 0.00 0.00 82 1018.4
20260905162337 23 169 0.0 0.0 0.00 0.00 0.00 82 1018.6
20260905161832 23 154 0.0 0.0 0.00 0.00 0.00 83 1018.3
20260905161332 23 156 0.0 3.2 0.00 0.00 0.00 82 1018.5
20260905160830 23 212 1.6 3.2 0.00 0.00 0.00 83 1018.3
20260905160325 23 68 0.0 0.0 0.00 0.00 0.00 83 1018.3
20260905155820 23 85 1.6 3.2 0.00 0.00 0.00 83 1018.4
20260905155319 23 81 3.2 4.8 0.00 0.00 0.00 85 1018.2
20260905154819 23 207 3.2 4.8 0.00 0.00 0.00 86 1018.3
20260905154314 22 169 0.0 0.0 0.00 0.00 0.00 86 1018.5
20260905153809 22 138 0.0 3.2 0.00 0.00 0.00 86 1018.3
20260905153306 22 130 0.0 0.0 0.00 0.00 0.00 87 1018.3
20260905152800 22 167 0.0 0.0 0.00 0.00 0.00 88 1018.4
20260905152259 22 263 1.6 3.2 0.00 0.00 0.00 88 1018.2
20260905151754 22 223 3.2 3.2 0.00 0.00 0.00 88 1018.1
20260905151250 22 177 0.0 3.2 0.00 0.00 0.00 88 1017.9
20260905150749 22 147 0.0 3.2 0.00 0.00 0.00 89 1017.9
20260905150249 22 152 0.0 0.0 0.00 0.00 0.00 89 1017.5
20260905145747 21 157 0.0 0.0 0.00 0.00 0.00 89 1017.7
20260905145241 21 147 0.0 3.2 0.00 0.00 0.00 90 1017.7
20260905144740 21 145 0.0 0.0 0.00 0.00 0.00 91 1017.8
20260905144236 21 161 0.0 0.0 0.00 0.00 0.00 91 1017.9
20260905143735 21 129 3.2 4.8 0.00 0.00 0.00 91 1017.7
20260905143235 21 310 3.2 4.8 0.00 0.00 0.00 92 1017.9
20260905142733 21 124 1.6 3.2 0.00 0.00 0.00 93 1017.9
20260905142228 21 158 0.0 0.0 0.00 0.00 0.00 93 1017.8
20260905141724 21 103 3.2 3.2 0.00 0.00 0.00 94 1017.8
20260905141220 21 136 3.2 4.8 0.00 0.00 0.00 94 1017.8
20260905140715 21 130 3.2 3.2 0.00 0.00 0.00 95 1017.8
20260905140214 20 141 3.2 3.2 0.00 0.00 0.00 95 1017.9
20260905135704 20 144 1.6 3.2 0.00 0.00 0.00 95 1018.1
20260905135159 20 143 1.6 3.2 0.00 0.00 0.00 96 1018.0
20260905134653 20 157 0.0 0.0 0.00 0.00 0.00 96 1017.9
20260905134152 20 158 0.0 0.0 0.00 0.00 0.00 96 1018.0
20260905133647 20 158 0.0 0.0 0.00 0.00 0.00 96 1017.8
20260905133142 20 171 0.0 0.0 0.00 0.00 0.00 96 1017.8
20260905132641 20 171 0.0 0.0 0.00 0.00 0.00 96 1017.9
20260905132137 20 160 0.0 0.0 0.00 0.00 0.00 96 1017.5
20260905131632 20 160 0.0 0.0 0.00 0.00 0.00 96 1017.6
20260905131126 20 185 1.6 3.2 0.00 0.00 0.00 96 1017.6
20260905130621 20 174 0.0 0.0 0.00 0.00 0.00 96 1017.4
20260905130120 20 173 0.0 0.0 0.00 0.00 0.00 97 1017.1
20260905125614 20 167 0.0 0.0 0.00 0.00 0.00 97 1016.7
20260905125110 20 153 1.6 3.2 0.00 0.00 0.00 97 1016.3
20260905124607 20 351 3.2 8.0 0.00 0.00 0.00 96 1016.4
20260905124102 20 130 3.2 3.2 0.00 0.00 0.00 96 1016.2
20260905123557 20 154 0.0 0.0 0.00 0.00 0.00 96 1016.1
20260905123054 20 163 0.0 0.0 0.00 0.00 0.00 96 1015.9
20260905122548 20 160 0.0 3.2 0.00 0.00 0.00 96 1016.3
20260905122043 20 157 0.0 0.0 0.00 0.00 0.00 96 1016.3
20260905121538 20 153 0.0 3.2 0.00 0.00 0.00 96 1016.4
20260905121033 20 167 0.0 0.0 0.00 0.00 0.00 96 1016.3
20260905120532 20 72 3.2 3.2 0.00 0.00 0.00 96 1016.6
20260905120028 20 157 0.0 0.0 0.00 0.00 0.00 96 1016.6
20260905115526 20 172 0.0 0.0 0.00 0.00 0.00 96 1016.6
20260905115021 20 237 1.6 3.2 0.00 0.00 0.00 96 1016.6
20260905114520 20 154 0.0 0.0 0.00 0.00 0.00 96 1016.4
20260905114020 20 147 0.0 3.2 0.00 0.00 0.00 95 1016.2
20260905113515 20 155 0.0 3.2 0.00 0.00 0.00 95 1016.3
20260905113010 20 155 0.0 0.0 0.00 0.00 0.00 95 1016.2
20260905112505 20 152 0.0 0.0 0.00 0.00 0.00 95 1016.1
20260905112000 20 150 0.0 3.2 0.00 0.00 0.00 95 1015.9
20260905111455 20 157 0.0 3.2 0.00 0.00 0.00 95 1016.1
20260905110949 20 115 0.0 3.2 0.00 0.00 0.00 95 1016.1
20260905110448 20 147 0.0 0.0 0.00 0.00 0.00 95 1016.2
20260905105948 20 174 0.0 0.0 0.00 0.00 0.00 95 1016.2
20260905105443 20 173 0.0 0.0 0.00 0.00 0.00 95 1016.1
20260905104942 20 163 0.0 0.0 0.00 0.00 0.00 95 1016.1
20260905104438 20 155 0.0 0.0 0.00 0.00 0.00 95 1016.2
20260905103933 20 158 0.0 0.0 0.00 0.00 0.00 94 1016.0
20260905103429 20 170 3.2 4.8 0.00 0.00 0.00 94 1016.0
20260905102925 20 166 0.0 3.2 0.00 0.00 0.00 94 1015.9
20260905102421 20 164 0.0 0.0 0.00 0.00 0.00 94 1015.8
20260905101915 20 178 0.0 0.0 0.00 0.00 0.00 94 1015.9
20260905101408 20 150 0.0 3.2 0.00 0.00 0.00 94 1015.9
20260905100903 20 180 0.0 0.0 0.00 0.00 0.00 94 1016.2
20260905100359 20 151 0.0 0.0 0.00 0.00 0.00 94 1016.2
20260905095858 20 11 3.2 4.8 0.00 0.00 0.00 94 1015.5
20260905095352 20 168 0.0 0.0 0.00 0.00 0.00 94 1015.5
20260905094847 20 156 0.0 0.0 0.00 0.00 0.00 94 1015.5
20260905094343 20 166 3.2 3.2 0.00 0.00 0.00 94 1015.1
20260905093841 20 34 3.2 4.8 0.00 0.00 0.00 94 1015.3
20260905093337 20 209 3.2 4.8 0.00 0.00 0.00 94 1015.2
20260905092833 20 147 4.8 8.0 0.00 0.00 0.00 93 1015.1
20260905092332 20 153 0.0 0.0 0.00 0.00 0.00 93 1015.3
20260905091828 20 144 0.0 0.0 0.00 0.00 0.00 93 1015.3
20260905091327 20 138 1.6 3.2 0.00 0.00 0.00 93 1015.4
20260905090826 20 166 1.6 3.2 0.00 0.00 0.00 93 1015.4
20260905090322 20 119 3.2 4.8 0.00 0.00 0.00 92 1015.7
20260905085821 20 126 3.2 3.2 0.00 0.00 0.00 92 1015.7
20260905085316 20 176 3.2 3.2 0.00 0.00 0.00 92 1015.8
20260905084812 20 160 0.0 3.2 0.00 0.00 0.00 92 1015.7
20260905084311 20 110 4.8 4.8 0.00 0.00 0.00 92 1015.8
20260905083806 20 47 6.4 8.0 0.00 0.00 0.00 92 1015.7
20260905083302 20 161 1.6 3.2 0.00 0.00 0.00 92 1015.7
20260905082758 20 157 0.0 0.0 0.00 0.00 0.00 92 1015.9
20260905082254 20 159 0.0 0.0 0.00 0.00 0.00 92 1015.6
20260905081753 20 173 3.2 4.8 0.00 0.00 0.00 92 1015.6
20260905081249 20 136 3.2 3.2 0.00 0.00 0.00 92 1015.8
20260905080742 20 115 3.2 3.2 0.00 0.00 0.00 92 1015.8
20260905080242 20 74 6.4 8.0 0.00 0.00 0.00 92 1015.9
20260905075741 20 106 1.6 3.2 0.00 0.00 0.00 92 1015.9
20260905075240 20 107 4.8 4.8 0.00 0.00 0.00 92 1015.8
20260905074739 20 139 0.0 0.0 0.00 0.00 0.00 92 1015.9
20260905074236 20 135 0.0 0.0 0.00 0.00 0.00 93 1015.9
20260905073731 20 164 0.0 0.0 0.00 0.00 0.00 93 1015.8
20260905073226 20 163 0.0 0.0 0.00 0.00 0.00 92 1016.0
20260905072725 20 170 1.6 3.2 0.00 0.00 0.00 92 1015.9
20260905072221 20 124 3.2 4.8 0.00 0.00 0.00 92 1016.0
20260905071718 20 135 1.6 3.2 0.00 0.00 0.00 92 1015.9
20260905071214 20 158 3.2 4.8 0.00 0.00 0.00 92 1015.8
20260905070708 20 155 1.6 3.2 0.00 0.00 0.00 92 1016.2
20260905070204 20 146 0.0 0.0 0.00 0.00 0.00 91 1016.0
20260905065703 20 179 3.2 3.2 0.00 0.00 0.00 91 1015.8
20260905065157 20 5 0.0 3.2 0.00 0.00 0.00 91 1015.9
20260905064652 19 282 4.8 4.8 0.00 0.00 0.00 92 1015.9
20260905064148 19 159 0.0 3.2 0.00 0.00 0.00 91 1016.0
20260905063646 19 130 1.6 3.2 0.00 0.00 0.00 91 1016.0
20260905063143 20 164 1.6 3.2 0.00 0.00 0.00 91 1016.0
20260905062638 20 157 0.0 0.0 0.00 0.00 0.00 91 1015.9
20260905062137 20 147 0.0 0.0 0.00 0.00 0.00 91 1015.9
20260905061632 20 158 1.6 3.2 0.00 0.00 0.00 91 1016.0
20260905061132 20 73 1.6 3.2 0.00 0.00 0.00 91 1015.8
20260905060627 20 115 0.0 0.0 0.00 0.00 0.00 90 1015.7
20260905060124 20 168 0.0 0.0 0.00 0.00 0.00 90 1016.0
20260905055622 20 122 1.6 3.2 0.00 0.00 0.00 90 1015.9
20260905055117 20 167 3.2 4.8 0.00 0.00 0.00 89 1015.7
20260905054613 20 172 0.0 3.2 0.00 0.00 0.00 89 1015.5
20260905054108 20 72 1.6 3.2 0.00 0.00 0.00 88 1015.7
20260905053603 20 113 0.0 3.2 0.00 0.00 0.00 88 1015.7
20260905053058 20 121 0.0 0.0 0.00 0.00 0.00 88 1015.7
20260905052557 20 154 0.0 0.0 0.00 0.00 0.00 87 1015.6
20260905052052 20 112 1.6 4.8 0.00 0.00 0.00 87 1015.6
20260905051548 21 268 1.6 3.2 0.00 0.00 0.00 87 1015.5
20260905051044 21 216 1.6 3.2 0.00 0.00 0.00 86 1015.3
20260905050539 21 152 0.0 3.2 0.00 0.00 0.00 86 1015.2
20260905050037 21 130 1.6 3.2 0.00 0.00 0.00 86 1015.3
20260905045531 21 161 0.0 3.2 0.00 0.00 0.00 86 1015.3
20260905045026 21 237 0.0 0.0 0.00 0.00 0.00 85 1015.2
20260905044527 21 162 3.2 3.2 0.00 0.00 0.00 85 1015.5
20260905044026 21 166 0.0 3.2 0.00 0.00 0.00 85 1015.4
20260905043526 21 59 3.2 4.8 0.00 0.00 0.00 85 1015.2
20260905043021 21 169 3.2 3.2 0.00 0.00 0.00 84 1015.3
20260905042520 21 93 1.6 3.2 0.00 0.00 0.00 84 1015.6
20260905042015 21 156 0.0 3.2 0.00 0.00 0.00 84 1015.5
20260905041511 21 164 0.0 3.2 0.00 0.00 0.00 84 1015.6
20260905041006 22 63 1.6 3.2 0.00 0.00 0.00 83 1015.5
20260905040505 22 148 0.0 0.0 0.00 0.00 0.00 83 1015.3
20260905040004 22 144 0.0 0.0 0.00 0.00 0.00 82 1015.4
20260905035500 22 134 3.2 3.2 0.00 0.00 0.00 82 1015.6
20260905034957 22 75 3.2 4.8 0.00 0.00 0.00 82 1015.4
20260905034457 22 140 1.6 3.2 0.00 0.00 0.00 81 1015.4
20260905033956 22 143 1.6 3.2 0.00 0.00 0.00 81 1015.1
20260905033451 22 48 3.2 8.0 0.00 0.00 0.00 81 1015.4
20260905032946 22 130 3.2 3.2 0.00 0.00 0.00 80 1015.3
20260905032441 22 96 3.2 8.0 0.00 0.00 0.00 80 1015.3
20260905031936 23 98 3.2 3.2 0.00 0.00 0.00 80 1015.2
20260905031432 23 123 3.2 3.2 0.00 0.00 0.00 79 1015.2
20260905030927 23 155 3.2 3.2 0.00 0.00 0.00 79 1015.1
20260905030422 23 64 3.2 3.2 0.00 0.00 0.00 78 1015.1